Location: Newark
(49.9819°N, 3.0344°E)
Time: 10:29:28
(UTC+00:00)

N. Korean satellite - Visible Passes

Search period start: 24 January 2020 00:00
Search period end: 03 February 2020 00:00
Orbit: 454 x 507 km, 97.2° (Epoch: 23 January)

Date Brightness Start Highest point End Pass type
(mag) Time Alt. Az. Time Alt. Az. Time Alt. Az.
24 Jan 9.8 04:36:52 10° ENE 04:38:47 14° E 04:40:43 10° ESE visible
24 Jan 6.6 06:09:00 10° N 06:12:28 51° WNW 06:15:58 10° SSW visible
25 Jan 6.6 05:43:25 10° NNE 05:47:00 79° ESE 05:50:36 10° S visible
25 Jan 10.0 17:58:58 10° WSW 18:00:15 12° W 18:01:32 10° WNW visible
26 Jan 8.0 05:18:03 10° NNE 05:21:26 39° E 05:24:51 10° SSE visible
26 Jan 8.0 06:52:02 10° NNW 06:54:36 19° WNW 06:57:11 10° WSW visible
26 Jan 9.4 17:31:47 10° SSW 17:34:30 22° W 17:37:15 10° NW visible
27 Jan 9.2 04:53:01 10° NE 04:55:48 21° E 04:58:36 10° SE visible
27 Jan 7.2 06:26:02 10° N 06:29:16 33° WNW 06:32:32 10° SW visible
27 Jan 8.0 17:05:36 10° S 17:08:51 42° W 17:12:10 10° NNW visible
28 Jan 10.1 04:28:48 10° ENE 04:30:04 11° E 04:31:21 10° ESE visible
28 Jan 6.5 06:00:18 10° N 06:03:51 65° WNW 06:07:27 10° SSW visible
29 Jan 7.0 05:34:46 10° NNE 05:38:21 63° E 05:41:58 10° S visible
29 Jan 9.8 17:49:31 10° SW 17:51:29 14° W 17:53:28 10° NW visible
30 Jan 8.5 05:09:29 10° NNE 05:12:46 32° E 05:16:04 10° SSE visible
30 Jan 7.7 06:43:09 10° NNW 06:46:02 23° WNW 06:48:56 10° WSW visible
30 Jan 9.0 17:22:49 10° SSW 17:25:47 27° W 17:28:46 10° NW visible
31 Jan 9.6 04:44:35 10° NE 04:47:05 17° E 04:49:36 10° SE visible
31 Jan 7.0 06:17:14 10° N 06:20:40 41° WNW 06:24:07 10° SW visible
01 Feb 6.5 05:51:35 10° N 05:55:13 82° WNW 05:58:53 10° SSW visible
02 Feb 7.5 05:26:08 10° NNE 05:29:41 50° E 05:33:16 10° S visible
02 Feb 9.7 17:40:18 10° SW 17:42:44 18° W 17:45:11 10° NW visible
